Location: Unspecified
(0.0000°N, 0.0000°E)
Time: 14:30:42
(UTC+00:00)

S-56A Canister/Altair - Pass Details

Date: 20 November 2019
Orbit: 633 x 2499 km, 38.9° (Epoch: 08 July)

Event Time Altitude Azimuth Distance (km) Brightness Sun altitude
Rises 12:25:03 0° 225° (SW) 6,065 12.4 68.1°
Reaches altitude 10° 12:28:57 10° 223° (SW) 5,131 12.2 67.6°
Maximum altitude 12:44:15 78° 138° (SE) 2,421 11.5 65.6°
Drops below altitude 10° 12:56:57 10° 54° (NE) 4,360 11.2 63.7°
Sets 12:59:58 0° 52° (NE) 5,144 11.5 63.2°
